Location: Althorst
(53.6379°N, 10.7715°E)
Time: 23:41:59
(UTC+00:00)

COSMOS 2455 - Pass Details

Date: 10 December 2019
Orbit: 903 x 907 km, 67.1° (Epoch: 18 January)

Event Time Altitude Azimuth Distance (km) Brightness Sun altitude
Rises 15:59:05 0° 244° (WSW) 3,527 8.5 -8.5°
Reaches altitude 10° 16:01:42 10° 250° (WSW) 2,589 6.9 -8.9°
Maximum altitude 16:07:27 46° 323° (NW) 1,209 3.6 -9.6°
Drops below altitude 10° 16:13:15 10° 36° (NE) 2,601 4.7 -10.4°
Enters shadow 16:13:27 - 37° (NE) 2,672 4.8 -10.4°
